Welcome to the New NWS' Forecast!
Most changes are behind the scenes, but click here for differences you might notice.

Regional Weather Roundup (RWR)

Issued by National Weather Service (NWS)

                            
894 
ASUS43 KTOP 201259
RWRKS 

WEATHER ROUNDUP FOR KANSAS
NATIONAL WEATHER SERVICE GOODLAND KS
800 AM CDT MON AUG 20 2018

NOTE:  "FAIR" INDICATES FEW OR NO CLOUDS BELOW 12,000 FEET WITH NO
SIGNIFICANT WEATHER AND/OR OBSTRUCTIONS TO VISIBILITY.

KSZ001>006-013>018-027>032-041>047-201400-
NORTHWEST KANSAS
  
CITY           SKY/WX    TMP DP  RH WIND       PRES   REMARKS
GOODLAND       CLEAR     51  48  89 NW15      30.20R                  
HAYS           CLOUDY    62  56  80 NW20G31   30.01R                  
HILL CITY      CLOUDY    61  53  75 NW20G31   30.05R HAZE             
RUSSELL        CLOUDY    62  61  96 NW16G24   29.98R FOG              
$$

KSZ061>065-074>080-084>089-201400-
SOUTHWEST KANSAS
  
CITY           SKY/WX    TMP DP  RH WIND       PRES   REMARKS
DODGE CITY     CLOUDY    61  54  77 NW13G23   30.08R HAZE             
GARDEN CITY    SUNNY     58  52  80 NW17      30.11R HAZE             
GREAT BEND     CLOUDY    64  58  80 NW17G23   29.99                   
LIBERAL        CLEAR     59  53  80 NW16      30.15R                  
$$

KSZ066>073-081>083-090>101-201400-
SOUTHEAST KANSAS
  
CITY           SKY/WX    TMP DP  RH WIND       PRES   REMARKS
CHANUTE        CLOUDY    67  66  97 W7        29.86R                  
COFFEYVILLE    MOSUNNY   69  66  90 W6        29.85R                  
HUTCHINSON     CLOUDY    66  63  90 NW20G28   29.93R                  
MEDICINE LODGE   N/A     66  59  78 NW15G25   29.97R                  
NEWTON         LGT RAIN  64  63  96 W12       29.92R FOG              
PARSONS        CLOUDY    67  66  97 W3        29.88R                  
WICHITA INTL   PTSUNNY   67  63  87 NW15      29.92R                  
WICHITA JABRA  CLOUDY    65  63  93 NW15G23   29.91R                  
WICHITA MCCONL CLOUDY    66  61  82 NW13      29.91R                  
WINFIELD       PTSUNNY   65  63  93 W12       29.93S                  
$$

KSZ007>012-019>026-033>040-048>060-102>105-201400-
NORTHEAST KANSAS
  
CITY           SKY/WX    TMP DP  RH WIND       PRES   REMARKS
CONCORDIA      CLOUDY    64  63  96 NW15G23   29.89R                  
EMPORIA        CLOUDY    67  64  90 W12       29.85S                  
LAWRENCE       CLOUDY    69  66  90 W12       29.77R                  
MANHATTAN      CLOUDY    68  66  93 W8        29.83R                  
OLATHE IND     PTSUNNY   68  65  90 W14G24    29.79R                  
OLATHE EXE     CLOUDY    67  65  93 SW10G20   29.77S                  
SALINA         LGT RAIN  65  63  93 NW17      29.90R                  
TOPEKA BILLARD CLOUDY    68  67  96 W8        29.77S                  
TOPEKA FORBES  CLOUDY    68  66  93 W13       29.79R                  
$$